Weather History for Colorado Springs, CO

Change the Weather History Date:

Sunday, December 15, 2013

  Actual Average Record
Temperature  
Mean Temperature 39 °F 29 °F  
Max Temperature 55 °F 41 °F 65 °F (1946)
Min Temperature 22 °F 17 °F -10 °F (1926)
Degree Days  
Heating Degree Days 26 36  
Month to date heating degree days 617 522  
Since 1 July heating degree days 1978 2003  
Cooling Degree Days 0 0  
Month to date cooling degree days 0 0  
Year to date cooling degree days 694 455  
Moisture  
Dew Point 13 °F    
Average Humidity 39    
Maximum Humidity 63    
Minimum Humidity 14    
Precipitation  
Precipitation 0.00 in 0.01 in 0.24 in (1988)
Month to date precipitation 0.07 0.18  
Year to date precipitation 19.22 16.38  
Snow  
Snow 0.00 in 0.20 in 4.00 in (1967)
Month to date snowfall 2.9 2.9  
Since 1 July snowfall 7.1 10.7  
Snow Depth 0.00 in    
Sea Level Pressure  
Sea Level Pressure 30.21 in    
Wind  
Wind Speed 7 mph (NW)    
Max Wind Speed 21 mph    
Max Gust Speed 28 mph    
Visibility 10 miles    
Events      
T = Trace of Precipitation, MM = Missing Value Source: NWS Daily Summary

Daily Weather History Graph

Daily Weather History Graph

Search for Another Location

Airport:

Trip Planner

Search our weather history database for the weather conditions in past years. The results will help you decide how hot, cold, wet, or windy it might be!

Date:

Astronomy

Dec. 15, 2013 Rise Set
Actual Time 7:10 AM MST 4:38 PM MST
Civil Twilight 6:40 AM MST 5:07 PM MST
Nautical Twilight 6:06 AM MST 5:41 PM MST
Astronomical Twilight 5:34 AM MST 6:13 PM MST
Moon 3:43 PM MST (12/15) 5:29 AM MST (12/15)
Length of Visible Light 10h 27m
Length of Day
9h 27m
Waxing Gibbous, 98% of the Moon is Illuminated
Dec 15
Waxing Gibbous
Dec 17
Full
Dec 25
Last Quarter
Jan 1
New
Jan 7
First Quarter

Hourly Weather History & Observations

Time (MST) Temp. Windchill Dew Point Humidity Pressure Visibility Wind Dir Wind Speed Gust Speed Precip Events Conditions
12:54 AM 24.1 °F 15.2 °F 12.0 °F 60% 30.25 in 10.0 mi North 8.1 mph - N/A   Partly Cloudy
1:54 AM 27.0 °F 18.7 °F 12.9 °F 56% 30.22 in 10.0 mi North 8.1 mph - N/A   Partly Cloudy
2:54 AM 27.0 °F 16.7 °F 15.1 °F 61% 30.23 in 10.0 mi NNE 11.5 mph - N/A   Scattered Clouds
3:54 AM 30.9 °F 25.2 °F 17.1 °F 57% 30.22 in 10.0 mi NNE 5.8 mph - N/A   Mostly Cloudy
4:54 AM 33.1 °F 26.9 °F 16.0 °F 50% 30.23 in 10.0 mi North 6.9 mph - N/A   Partly Cloudy
5:54 AM 30.9 °F 24.3 °F 15.1 °F 52% 30.27 in 10.0 mi West 6.9 mph - N/A   Clear
6:54 AM 28.0 °F - 14.0 °F 56% 30.32 in 10.0 mi Calm Calm - N/A   Partly Cloudy
7:54 AM 32.0 °F 28.7 °F 14.0 °F 48% 30.34 in 10.0 mi Variable 3.5 mph - N/A   Scattered Clouds
8:54 AM 37.9 °F 35.5 °F 14.0 °F 38% 30.33 in 10.0 mi ESE 3.5 mph - N/A   Partly Cloudy
9:54 AM 43.0 °F 38.8 °F 10.9 °F 27% 30.30 in 10.0 mi South 6.9 mph - N/A   Partly Cloudy
10:54 AM 46.0 °F 42.5 °F 12.0 °F 25% 30.29 in 10.0 mi South 6.9 mph - N/A   Partly Cloudy
11:54 AM 46.9 °F - 12.0 °F 24% 30.25 in 10.0 mi South 3.5 mph - N/A   Partly Cloudy
12:54 PM 48.9 °F - 12.9 °F 24% 30.19 in 10.0 mi SSW 3.5 mph - N/A   Partly Cloudy
1:54 PM 52.0 °F - 12.9 °F 21% 30.15 in 10.0 mi Variable 3.5 mph - N/A   Scattered Clouds
2:54 PM 54.0 °F - 14.0 °F 21% 30.14 in 10.0 mi SW 5.8 mph - N/A   Mostly Cloudy
3:54 PM 52.0 °F - 16.0 °F 24% 30.14 in 10.0 mi South 3.5 mph - N/A   Partly Cloudy
4:54 PM 48.0 °F - 17.1 °F 29% 30.15 in 10.0 mi SW 4.6 mph - N/A   Partly Cloudy
5:54 PM 45.0 °F 43.5 °F 17.1 °F 33% 30.18 in 10.0 mi NW 3.5 mph - N/A   Partly Cloudy
6:54 PM 33.1 °F 25.5 °F 17.1 °F 52% 30.27 in 10.0 mi North 9.2 mph - N/A   Partly Cloudy
7:54 PM 43.0 °F 37.2 °F 10.0 °F 26% 30.18 in 10.0 mi NNW 10.4 mph - N/A   Scattered Clouds
8:54 PM 42.1 °F 36.6 °F 7.0 °F 24% 30.16 in 10.0 mi NNW 9.2 mph - N/A   Partly Cloudy
9:54 PM 50.0 °F - 3.9 °F 15% 30.10 in 10.0 mi WNW 17.3 mph 20.7 mph N/A   Scattered Clouds
10:54 PM 50.0 °F - 5.0 °F 16% 30.08 in 10.0 mi NW 18.4 mph 23.0 mph N/A   Partly Cloudy
11:54 PM 45.0 °F 38.9 °F 7.0 °F 21% 30.09 in 10.0 mi NNW 12.7 mph - N/A   Clear